Location: Clanezzo
(45.7500°N, 9.6000°E)
Time: 05:29:01
(UTC+00:00)

Gbstr 26 Del rocket - Pass Details

Date: 30 September 2021
Orbit: 492 x 1263 km, 51.8° (Epoch: 20 October)

Event Time Altitude Azimuth Distance (km) Brightness Sun altitude
Rises 20:51:58 0° 271° (W) 3,984 7.7 -37.7°
Reaches altitude 10° 20:54:42 10° 275° (W) 3,101 7.1 -38.0°
Enters shadow 21:01:45 56° 336° (NNW) 1,460 4.9 -38.9°
